Regional Weather Roundup
Issued by NWS

Home | Current Version | Previous Version | Graphics & Text | Print | Product List | Glossary On
Versions: 1 2 3 4 5 6 7 8 9 10 11 12 13 14 15 16 17 18 19 20 21 22 23 24 25 26 27 28 29 30 31 32 33 34 35 36 37 38 39 40 41 42 43 44 45 46 47 48 49 50
000
ASUS45 KCYS 230010
RWRWY

WYOMING REGIONAL WEATHER ROUNDUP
NATIONAL WEATHER SERVICE CHEYENNE WY
600 PM MDT MON SEP 22 2014

NOTE:  "FAIR" INDICATES FEW OR NO CLOUDS BELOW 12,000 FEET
WITH NO SIGNIFICANT WEATHER AND/OR OBSTRUCTIONS TO VISIBILITY.

WYZ001-230100-
YELLOWSTONE NATIONAL PARK

CITY           SKY/WX    TMP DP  RH WIND       PRES   REMARKS
LK YELLOWSTONE   N/A     49  46  90 CALM      30.26F
6HR MIN TEMP:  48; 6HR MAX TEMP:  56; 6HR PCP:  0.19;

W YELLOWSTONE  NOT AVBL

$$
WYZ002>013-054>058-071-098>099-230100-
NORTHERN WYOMING

CITY           SKY/WX    TMP DP  RH WIND       PRES   REMARKS
JACKSON        MOSUNNY   57  48  72 S13G20    30.19
CODY           PTSUNNY   70  43  37 SW13G20   30.02S
GREYBULL       PTSUNNY   77  45  32 SE5       29.93S
6HR MIN TEMP:  75; 6HR MAX TEMP:  78;

WORLAND        PTSUNNY   76  43  30 W3        29.95S
6HR MIN TEMP:  71; 6HR MAX TEMP:  78;

SHERIDAN       CLOUDY    71  47  42 SW20G26   29.94F
6HR MIN TEMP:  69; 6HR MAX TEMP:  80;

BUFFALO        CLOUDY    68  46  45 W13       30.01S
6HR MIN TEMP:  67; 6HR MAX TEMP:  76;

GILLETTE       CLOUDY    73  51  46 W7        29.93S
6HR MIN TEMP:  73; 6HR MAX TEMP:  82;

HULETT         FAIR      75  43  31 MISG      29.95
NEWCASTLE      FAIR      70  45  40 MISG      30.00

$$
WYZ014>020-022>026-101>103-230100-
CENTRAL WYOMING

CITY           SKY/WX    TMP DP  RH WIND       PRES   REMARKS
BIG PINEY      CLOUDY    60  45  57 NE7       30.24S
6HR MIN TEMP:  56; 6HR MAX TEMP:  63; 6HR PCP: TRACE;

PINEDALE       MOCLDY    55  48  76 MISG      30.25R
DUBOIS         MOCLDY    59  39  47 NW9G20    30.19S
LANDER         PTSUNNY   72  38  29 W13       30.04S
6HR MIN TEMP:  66; 6HR MAX TEMP:  78; 6HR PCP: TRACE;

RIVERTON       PTSUNNY   72  40  31 SW7       30.05S
6HR MIN TEMP:  60; 6HR MAX TEMP:  74; 6HR PCP:  0.02;

CASPER         PTSUNNY   69  44  40 S14G22    30.03F
6HR MIN TEMP:  66; 6HR MAX TEMP:  74;

DOUGLAS        CLOUDY    71  47  42 SW10      30.05S
6HR MIN TEMP:  68; 6HR MAX TEMP:  79; 6HR PCP: TRACE;


$$
WYZ021-027>030-104>119-230100-
SOUTHERN WYOMING

CITY           SKY/WX    TMP DP  RH WIND       PRES   REMARKS
EVANSTON       MOSUNNY   63  41  44 W17G26    30.25S
6HR MIN TEMP:  60; 6HR MAX TEMP:  67;

KEMMERER       CLOUDY    63  39  42 W16G24    30.25S
FORT BRIDGER   CLOUDY    67  40  37 W21G28    30.27S
ROCK SPRINGS   MOSUNNY   62  44  51 NW13      30.20F
6HR MIN TEMP:  56; 6HR MAX TEMP:  68; 6HR PCP: TRACE;

DIXON          MOCLDY    57  53  85 E7        30.24F
RAWLINS        CLOUDY    62  46  55 SW10      30.19S
6HR MIN TEMP:  52; 6HR MAX TEMP:  67; 6HR PCP:  0.05;

SARATOGA       FAIR      59  46  63 SW13G20   30.24S
LARAMIE        PTSUNNY   55  45  68 NW14      30.24R
6HR MIN TEMP:  50; 6HR MAX TEMP:  67; 6HR PCP:  0.07;

CHEYENNE       CLOUDY    72  43  35 N6        30.15R
6HR MIN TEMP:  59; 6HR MAX TEMP:  74; 6HR PCP:  0.02;

TORRINGTON     PTCLDY    65  57  75 MISG      30.03F
6HR MIN TEMP:  60; 6HR MAX TEMP:  75; 6HR PCP:  0.16;

PINE BLUFFS    FAIR      66  52  59 NE9       30.10R

$$


USA.gov is the U.S. government's official web portal to all federal, state and local government web resources and services.